Time,TemperatureF,DewpointF,PressureIn,WindDirection,WindDirectionDegrees,WindSpeedMPH,WindSpeedGustMPH,Humidity,HourlyPrecipIn,Conditions,Clouds,dailyrainin,SoftwareType,DateUTC
2013-01-11 00:04:00,40.3,32.7,30.06,WSW,258,5.0,9.0,74,0.00,,,0.01,meteohub,2013-01-11 08:04:00,
2013-01-11 00:09:00,40.5,32.9,30.06,WSW,240,3.0,9.0,74,0.00,,,0.01,meteohub,2013-01-11 08:09:00,
2013-01-11 00:14:00,40.5,32.9,30.06,WSW,241,2.0,6.0,74,0.00,,,0.01,meteohub,2013-01-11 08:14:00,
2013-01-11 00:19:00,40.5,32.9,30.06,WSW,246,0.0,8.0,74,0.00,,,0.01,meteohub,2013-01-11 08:19:00,
2013-01-11 00:24:00,40.3,32.7,30.06,WSW,246,0.0,8.0,74,0.00,,,0.01,meteohub,2013-01-11 08:24:00,
2013-01-11 00:29:00,40.1,32.5,30.06,WSW,246,0.0,8.0,74,0.00,,,0.01,meteohub,2013-01-11 08:29:00,
2013-01-11 00:34:00,39.9,32.7,30.06,WSW,246,3.0,6.0,75,0.00,,,0.01,meteohub,2013-01-11 08:34:00,
2013-01-11 00:39:00,39.7,33.4,30.06,WSW,246,0.0,4.0,78,0.00,,,0.01,meteohub,2013-01-11 08:39:00,
2013-01-11 00:44:00,39.6,32.9,30.06,WSW,246,0.0,4.0,77,0.00,,,0.01,meteohub,2013-01-11 08:44:00,
2013-01-11 00:49:00,39.4,32.7,30.06,WSW,246,0.0,3.0,77,0.00,,,0.01,meteohub,2013-01-11 08:49:00,
2013-01-11 00:54:00,39.2,32.9,30.05,WSW,246,0.0,1.0,78,0.00,,,0.01,meteohub,2013-01-11 08:54:00,
2013-01-11 00:59:00,38.8,32.9,30.05,WSW,246,0.0,1.0,79,0.00,,,0.01,meteohub,2013-01-11 08:59:00,
2013-01-11 01:04:00,38.7,33.1,30.05,WSW,246,1.0,1.0,80,0.00,,,0.01,meteohub,2013-01-11 09:04:00,
2013-01-11 01:09:00,38.1,32.5,30.05,WSW,247,0.0,2.0,80,0.00,,,0.01,meteohub,2013-01-11 09:09:00,
2013-01-11 01:14:00,38.3,32.7,30.05,WSW,248,1.0,4.0,80,0.00,,,0.01,meteohub,2013-01-11 09:14:00,
2013-01-11 01:19:00,38.7,32.7,30.05,WSW,248,0.0,4.0,79,0.00,,,0.01,meteohub,2013-01-11 09:19:00,
2013-01-11 01:24:00,38.8,32.9,30.05,WSW,248,4.0,4.0,79,0.00,,,0.01,meteohub,2013-01-11 09:24:00,
2013-01-11 01:29:00,39.0,32.7,30.05,WSW,251,1.0,5.0,78,0.00,,,0.01,meteohub,2013-01-11 09:29:00,
2013-01-11 01:34:00,39.6,32.9,30.05,WSW,250,1.0,7.0,77,0.00,,,0.01,meteohub,2013-01-11 09:34:00,
2013-01-11 01:40:00,39.7,32.7,30.05,WSW,251,1.0,7.0,76,0.00,,,0.01,meteohub,2013-01-11 09:40:00,
2013-01-11 01:45:00,39.9,32.7,30.05,WSW,257,1.0,7.0,75,0.00,,,0.01,meteohub,2013-01-11 09:45:00,
2013-01-11 01:50:00,39.9,32.9,30.05,WNW,285,1.0,9.0,76,0.00,,,0.01,meteohub,2013-01-11 09:50:00,
2013-01-11 01:55:00,39.7,32.5,30.05,SW,236,0.0,9.0,75,0.00,,,0.01,meteohub,2013-01-11 09:55:00,
2013-01-11 02:00:00,39.7,32.7,30.05,SW,236,2.0,8.0,76,0.00,,,0.01,meteohub,2013-01-11 10:00:00,
2013-01-11 02:05:00,39.7,32.5,30.05,WNW,296,0.0,8.0,75,0.00,,,0.01,meteohub,2013-01-11 10:05:00,
2013-01-11 02:10:00,39.7,32.7,30.06,WNW,298,0.0,11.0,76,0.00,,,0.01,meteohub,2013-01-11 10:10:00,
2013-01-11 02:15:00,39.6,32.5,30.06,WNW,298,0.0,11.0,76,0.00,,,0.01,meteohub,2013-01-11 10:15:00,
2013-01-11 02:20:00,39.6,32.5,30.06,WNW,298,0.0,4.0,76,0.00,,,0.01,meteohub,2013-01-11 10:20:00,
2013-01-11 02:25:00,39.2,32.4,30.07,WNW,298,1.0,4.0,76,0.00,,,0.01,meteohub,2013-01-11 10:25:00,
2013-01-11 02:30:00,39.0,32.2,30.07,WNW,298,2.0,4.0,76,0.00,,,0.01,meteohub,2013-01-11 10:30:00,
2013-01-11 02:35:00,39.2,32.4,30.07,SW,236,5.0,5.0,76,0.00,,,0.01,meteohub,2013-01-11 10:35:00,
2013-01-11 02:40:00,39.6,32.4,30.06,WSW,240,1.0,14.0,75,0.00,,,0.01,meteohub,2013-01-11 10:40:00,
2013-01-11 02:45:00,39.6,32.4,30.06,SW,224,3.0,14.0,75,0.00,,,0.01,meteohub,2013-01-11 10:45:00,
2013-01-11 02:50:00,39.6,32.4,30.06,SW,229,3.0,9.0,75,0.00,,,0.01,meteohub,2013-01-11 10:50:00,
2013-01-11 02:55:00,39.6,32.4,30.07,WSW,247,6.0,11.0,75,0.00,,,0.01,meteohub,2013-01-11 10:55:00,
2013-01-11 03:00:00,39.6,32.4,30.07,WSW,256,0.0,11.0,75,0.00,,,0.01,meteohub,2013-01-11 11:00:00,
2013-01-11 03:05:00,39.6,32.5,30.07,West,269,0.0,7.0,76,0.00,,,0.01,meteohub,2013-01-11 11:05:00,
2013-01-11 03:10:00,39.4,32.5,30.06,West,278,3.0,7.0,76,0.00,,,0.01,meteohub,2013-01-11 11:10:00,
2013-01-11 03:15:00,39.4,32.5,30.06,West,278,0.0,7.0,76,0.00,,,0.01,meteohub,2013-01-11 11:15:00,
2013-01-11 03:20:00,39.2,32.4,30.06,West,278,0.0,6.0,76,0.00,,,0.01,meteohub,2013-01-11 11:20:00,
2013-01-11 03:25:00,39.0,32.2,30.06,West,278,0.0,4.0,76,0.00,,,0.01,meteohub,2013-01-11 11:25:00,
2013-01-11 03:30:00,38.8,32.0,30.06,West,278,0.0,3.0,76,0.00,,,0.01,meteohub,2013-01-11 11:30:00,
2013-01-11 03:35:00,38.7,32.0,30.06,West,278,0.0,2.0,77,0.00,,,0.01,meteohub,2013-01-11 11:35:00,
2013-01-11 03:40:00,38.5,31.8,30.07,West,278,0.0,1.0,77,0.00,,,0.01,meteohub,2013-01-11 11:40:00,
2013-01-11 03:45:00,38.1,32.2,30.07,West,278,0.0,1.0,79,0.00,,,0.01,meteohub,2013-01-11 11:45:00,
2013-01-11 03:50:00,37.9,32.7,30.07,West,278,0.0,1.0,81,0.00,,,0.01,meteohub,2013-01-11 11:50:00,
2013-01-11 03:55:00,37.6,32.5,30.07,West,278,0.0,1.0,82,0.00,,,0.01,meteohub,2013-01-11 11:55:00,
2013-01-11 04:00:00,37.0,32.0,30.07,West,278,0.0,1.0,82,0.00,,,0.01,meteohub,2013-01-11 12:00:00,
2013-01-11 04:05:00,36.7,31.6,30.07,West,278,0.0,1.0,82,0.00,,,0.01,meteohub,2013-01-11 12:05:00,
2013-01-11 04:10:00,36.1,31.5,30.07,West,278,0.0,0.0,83,0.00,,,0.01,meteohub,2013-01-11 12:10:00,
2013-01-11 04:15:00,35.8,31.5,30.07,West,278,0.0,0.0,84,0.00,,,0.01,meteohub,2013-01-11 12:15:00,
2013-01-11 04:20:00,35.2,31.1,30.07,West,278,0.0,1.0,85,0.00,,,0.01,meteohub,2013-01-11 12:20:00,
2013-01-11 04:25:00,35.1,31.3,30.07,West,278,0.0,2.0,86,0.00,,,0.01,meteohub,2013-01-11 12:25:00,
2013-01-11 04:30:00,35.1,31.6,30.07,West,278,0.0,2.0,87,0.00,,,0.01,meteohub,2013-01-11 12:30:00,
2013-01-11 04:35:00,35.2,31.5,30.07,West,278,0.0,2.0,86,0.00,,,0.01,meteohub,2013-01-11 12:35:00,
2013-01-11 04:40:00,35.2,31.5,30.08,West,278,0.0,2.0,86,0.00,,,0.01,meteohub,2013-01-11 12:40:00,
2013-01-11 04:45:00,35.2,31.5,30.08,West,278,0.0,2.0,86,0.00,,,0.01,meteohub,2013-01-11 12:45:00,
2013-01-11 04:50:00,35.2,31.5,30.08,West,278,0.0,2.0,86,0.00,,,0.01,meteohub,2013-01-11 12:50:00,
2013-01-11 04:56:00,35.1,31.3,30.08,West,278,0.0,2.0,86,0.00,,,0.01,meteohub,2013-01-11 12:56:00,
2013-01-11 05:01:00,35.2,31.5,30.08,West,278,0.0,2.0,86,0.00,,,0.01,meteohub,2013-01-11 13:01:00,
2013-01-11 05:06:00,35.1,31.3,30.08,West,278,0.0,3.0,86,0.00,,,0.01,meteohub,2013-01-11 13:06:00,
2013-01-11 05:11:00,35.1,31.3,30.08,West,278,0.0,3.0,86,0.00,,,0.01,meteohub,2013-01-11 13:11:00,
2013-01-11 05:16:00,35.1,31.3,30.08,West,278,0.0,3.0,86,0.00,,,0.01,meteohub,2013-01-11 13:16:00,
2013-01-11 05:21:00,35.1,31.3,30.08,West,278,0.0,1.0,86,0.00,,,0.01,meteohub,2013-01-11 13:21:00,
2013-01-11 05:26:00,34.9,31.5,30.08,West,278,0.0,1.0,87,0.00,,,0.01,meteohub,2013-01-11 13:26:00,
2013-01-11 05:31:00,34.3,31.1,30.08,West,278,0.0,0.0,88,0.00,,,0.01,meteohub,2013-01-11 13:31:00,
2013-01-11 05:36:00,34.2,30.9,30.08,West,278,0.0,0.0,88,0.00,,,0.01,meteohub,2013-01-11 13:36:00,
2013-01-11 05:41:00,34.0,30.7,30.09,West,278,0.0,0.0,88,0.00,,,0.01,meteohub,2013-01-11 13:41:00,
2013-01-11 05:46:00,33.6,30.4,30.09,West,278,0.0,0.0,88,0.00,,,0.01,meteohub,2013-01-11 13:46:00,
2013-01-11 05:51:00,33.4,30.6,30.09,West,278,0.0,0.0,89,0.00,,,0.01,meteohub,2013-01-11 13:51:00,
2013-01-11 05:56:00,33.3,30.6,30.09,West,278,0.0,0.0,90,0.00,,,0.01,meteohub,2013-01-11 13:56:00,
2013-01-11 06:01:00,33.3,30.6,30.09,West,278,0.0,0.0,90,0.00,,,0.01,meteohub,2013-01-11 14:01:00,
2013-01-11 06:06:00,33.3,30.6,30.09,West,278,0.0,1.0,90,0.00,,,0.01,meteohub,2013-01-11 14:06:00,
2013-01-11 06:11:00,33.3,30.6,30.09,West,278,0.0,2.0,90,0.00,,,0.01,meteohub,2013-01-11 14:11:00,
2013-01-11 06:16:00,33.1,30.4,30.09,West,278,0.0,2.0,90,0.00,,,0.01,meteohub,2013-01-11 14:16:00,
2013-01-11 06:21:00,33.1,30.4,30.09,West,278,0.0,2.0,90,0.00,,,0.01,meteohub,2013-01-11 14:21:00,
2013-01-11 06:26:00,32.9,30.4,30.09,West,278,0.0,0.0,90,0.00,,,0.01,meteohub,2013-01-11 14:26:00,
2013-01-11 06:31:00,32.7,30.2,30.09,West,278,0.0,0.0,90,0.00,,,0.01,meteohub,2013-01-11 14:31:00,
2013-01-11 06:36:00,32.5,30.0,30.09,West,278,0.0,0.0,90,0.00,,,0.01,meteohub,2013-01-11 14:36:00,
2013-01-11 06:41:00,32.4,29.8,30.10,West,278,0.0,0.0,90,0.00,,,0.01,meteohub,2013-01-11 14:41:00,
2013-01-11 06:46:00,32.2,29.7,30.10,West,278,0.0,0.0,90,0.00,,,0.01,meteohub,2013-01-11 14:46:00,
2013-01-11 06:51:00,32.2,29.8,30.10,West,278,0.0,0.0,91,0.00,,,0.01,meteohub,2013-01-11 14:51:00,
2013-01-11 06:56:00,32.0,29.7,30.11,West,278,0.0,0.0,91,0.00,,,0.01,meteohub,2013-01-11 14:56:00,
2013-01-11 07:01:00,31.8,29.8,30.11,West,278,0.0,0.0,92,0.00,,,0.01,meteohub,2013-01-11 15:01:00,
2013-01-11 07:06:00,31.8,29.8,30.11,West,278,0.0,0.0,92,0.00,,,0.01,meteohub,2013-01-11 15:06:00,
2013-01-11 07:11:00,31.8,29.8,30.11,West,278,0.0,0.0,92,0.00,,,0.01,meteohub,2013-01-11 15:11:00,
2013-01-11 07:16:00,31.8,29.8,30.11,West,278,0.0,0.0,92,0.00,,,0.01,meteohub,2013-01-11 15:16:00,
2013-01-11 07:21:00,31.6,29.7,30.11,West,278,0.0,0.0,92,0.00,,,0.01,meteohub,2013-01-11 15:21:00,
2013-01-11 07:26:00,31.6,29.8,30.12,West,278,0.0,0.0,93,0.00,,,0.01,meteohub,2013-01-11 15:26:00,
2013-01-11 07:31:00,31.8,30.0,30.12,West,278,0.0,0.0,93,0.00,,,0.01,meteohub,2013-01-11 15:31:00,
2013-01-11 07:36:00,31.8,30.0,30.12,West,278,0.0,0.0,93,0.00,,,0.01,meteohub,2013-01-11 15:36:00,
2013-01-11 07:41:00,32.0,30.6,30.12,West,278,0.0,0.0,94,0.00,,,0.01,meteohub,2013-01-11 15:41:00,
2013-01-11 07:46:00,32.4,31.1,30.12,West,278,0.0,0.0,95,0.00,,,0.01,meteohub,2013-01-11 15:46:00,
2013-01-11 07:51:00,32.5,30.9,30.12,West,278,0.0,0.0,94,0.00,,,0.01,meteohub,2013-01-11 15:51:00,
2013-01-11 07:57:00,32.9,31.3,30.12,West,278,0.0,0.0,94,0.00,,,0.01,meteohub,2013-01-11 15:57:00,
2013-01-11 08:02:00,33.1,31.5,30.12,West,278,0.0,0.0,94,0.00,,,0.01,meteohub,2013-01-11 16:02:00,
2013-01-11 08:07:00,33.3,31.6,30.12,West,278,0.0,0.0,94,0.00,,,0.01,meteohub,2013-01-11 16:07:00,
2013-01-11 08:12:00,33.4,31.8,30.12,West,278,0.0,0.0,94,0.00,,,0.01,meteohub,2013-01-11 16:12:00,
2013-01-11 08:17:00,33.6,32.0,30.12,West,278,0.0,0.0,94,0.00,,,0.01,meteohub,2013-01-11 16:17:00,
2013-01-11 08:22:00,33.6,32.0,30.12,West,278,0.0,0.0,94,0.00,,,0.01,meteohub,2013-01-11 16:22:00,
2013-01-11 08:27:00,34.0,32.4,30.12,West,278,0.0,0.0,94,0.00,,,0.01,meteohub,2013-01-11 16:27:00,
2013-01-11 08:32:00,34.2,32.4,30.12,West,278,0.0,0.0,93,0.00,,,0.01,meteohub,2013-01-11 16:32:00,
2013-01-11 08:37:00,34.3,32.7,30.12,West,278,0.0,0.0,94,0.00,,,0.01,meteohub,2013-01-11 16:37:00,
2013-01-11 08:42:00,34.5,32.7,30.13,West,278,0.0,0.0,93,0.00,,,0.01,meteohub,2013-01-11 16:42:00,
2013-01-11 08:47:00,34.9,33.1,30.13,West,278,0.0,0.0,93,0.00,,,0.01,meteohub,2013-01-11 16:47:00,
2013-01-11 08:52:00,35.1,32.9,30.13,West,278,0.0,1.0,92,0.00,,,0.01,meteohub,2013-01-11 16:52:00,
2013-01-11 08:57:00,35.2,33.1,30.13,West,278,0.0,1.0,92,0.00,,,0.01,meteohub,2013-01-11 16:57:00,
2013-01-11 09:02:00,35.2,33.1,30.13,West,278,0.0,1.0,92,0.00,,,0.01,meteohub,2013-01-11 17:02:00,
2013-01-11 09:07:00,35.4,33.3,30.13,West,278,0.0,0.0,92,0.00,,,0.01,meteohub,2013-01-11 17:07:00,
2013-01-11 09:12:00,35.4,33.3,30.13,West,278,0.0,0.0,92,0.00,,,0.01,meteohub,2013-01-11 17:12:00,
2013-01-11 09:17:00,35.6,33.4,30.13,West,278,0.0,0.0,92,0.00,,,0.01,meteohub,2013-01-11 17:17:00,
2013-01-11 09:22:00,36.0,33.8,30.13,West,278,0.0,0.0,92,0.00,,,0.01,meteohub,2013-01-11 17:22:00,
2013-01-11 09:27:00,36.1,33.8,30.12,West,278,0.0,0.0,91,0.00,,,0.01,meteohub,2013-01-11 17:27:00,
2013-01-11 09:32:00,36.3,33.6,30.12,West,278,0.0,0.0,90,0.00,,,0.01,meteohub,2013-01-11 17:32:00,
2013-01-11 09:37:00,37.0,33.8,30.12,West,278,0.0,3.0,88,0.00,,,0.01,meteohub,2013-01-11 17:37:00,
2013-01-11 09:42:00,37.8,34.0,30.12,West,278,0.0,4.0,86,0.00,,,0.01,meteohub,2013-01-11 17:42:00,
2013-01-11 09:47:00,38.1,33.8,30.12,West,278,0.0,4.0,84,0.00,,,0.01,meteohub,2013-01-11 17:47:00,
2013-01-11 09:52:00,38.7,33.6,30.12,West,278,2.0,4.0,82,0.00,,,0.01,meteohub,2013-01-11 17:52:00,
2013-01-11 09:57:00,39.2,34.2,30.12,West,278,0.0,3.0,82,0.00,,,0.01,meteohub,2013-01-11 17:57:00,
2013-01-11 10:02:00,39.6,34.0,30.12,West,278,0.0,3.0,80,0.00,,,0.01,meteohub,2013-01-11 18:02:00,
2013-01-11 10:07:00,39.9,34.3,30.12,West,278,0.0,3.0,80,0.00,,,0.01,meteohub,2013-01-11 18:07:00,
2013-01-11 10:12:00,40.1,34.2,30.12,West,278,0.0,3.0,79,0.00,,,0.01,meteohub,2013-01-11 18:12:00,
2013-01-11 10:17:00,40.5,34.7,30.12,West,278,2.0,2.0,80,0.00,,,0.01,meteohub,2013-01-11 18:17:00,
2013-01-11 10:22:00,40.6,34.7,30.12,West,278,0.0,2.0,79,0.00,,,0.01,meteohub,2013-01-11 18:22:00,
2013-01-11 10:27:00,40.8,34.9,30.12,West,278,0.0,2.0,79,0.00,,,0.01,meteohub,2013-01-11 18:27:00,
2013-01-11 10:32:00,41.0,34.3,30.12,West,278,3.0,3.0,77,0.00,,,0.01,meteohub,2013-01-11 18:32:00,
2013-01-11 10:37:00,41.2,34.5,30.12,West,278,0.0,4.0,77,0.00,,,0.01,meteohub,2013-01-11 18:37:00,
2013-01-11 10:42:00,41.4,35.1,30.12,West,278,0.0,4.0,78,0.00,,,0.01,meteohub,2013-01-11 18:42:00,
2013-01-11 10:47:00,41.5,34.9,30.12,West,278,1.0,4.0,77,0.00,,,0.01,meteohub,2013-01-11 18:47:00,
2013-01-11 10:52:00,41.7,34.7,30.12,West,278,0.0,3.0,76,0.00,,,0.01,meteohub,2013-01-11 18:52:00,
2013-01-11 10:57:00,42.1,34.3,30.10,West,277,2.0,3.0,74,0.00,,,0.01,meteohub,2013-01-11 18:57:00,
2013-01-11 11:02:00,42.4,34.0,30.10,West,277,0.0,7.0,72,0.00,,,0.01,meteohub,2013-01-11 19:02:00,
2013-01-11 11:07:00,42.8,34.0,30.10,West,269,1.0,7.0,71,0.00,,,0.01,meteohub,2013-01-11 19:07:00,
2013-01-11 11:12:00,43.0,34.2,30.10,West,269,0.0,7.0,71,0.00,,,0.01,meteohub,2013-01-11 19:12:00,
2013-01-11 11:17:00,43.2,34.3,30.10,West,269,0.0,6.0,71,0.00,,,0.01,meteohub,2013-01-11 19:17:00,
2013-01-11 11:22:00,43.3,34.9,30.10,West,269,0.0,4.0,72,0.00,,,0.01,meteohub,2013-01-11 19:22:00,
2013-01-11 11:27:00,43.5,35.1,30.09,West,269,0.0,2.0,72,0.00,,,0.01,meteohub,2013-01-11 19:27:00,
2013-01-11 11:32:00,43.9,35.1,30.09,West,269,3.0,3.0,71,0.00,,,0.01,meteohub,2013-01-11 19:32:00,
2013-01-11 11:37:00,44.1,34.9,30.09,West,269,0.0,3.0,70,0.00,,,0.01,meteohub,2013-01-11 19:37:00,
2013-01-11 11:42:00,44.2,34.7,30.08,West,261,3.0,3.0,69,0.00,,,0.01,meteohub,2013-01-11 19:42:00,
2013-01-11 11:47:00,44.4,34.9,30.08,West,263,0.0,5.0,69,0.00,,,0.01,meteohub,2013-01-11 19:47:00,
2013-01-11 11:52:00,44.4,34.5,30.08,West,263,0.0,6.0,68,0.00,,,0.01,meteohub,2013-01-11 19:52:00,
2013-01-11 11:57:00,44.8,34.5,30.07,WSW,255,3.0,6.0,67,0.00,,,0.01,meteohub,2013-01-11 19:57:00,
2013-01-11 12:02:00,44.8,34.5,30.07,WSW,254,0.0,6.0,67,0.00,,,0.01,meteohub,2013-01-11 20:02:00,
2013-01-11 12:07:00,44.6,34.3,30.07,WSW,250,1.0,6.0,67,0.00,,,0.01,meteohub,2013-01-11 20:07:00,
2013-01-11 12:12:00,44.8,34.9,30.06,West,263,2.0,6.0,68,0.00,,,0.01,meteohub,2013-01-11 20:12:00,
2013-01-11 12:17:00,44.8,35.2,30.06,West,263,0.0,10.0,69,0.00,,,0.01,meteohub,2013-01-11 20:17:00,
2013-01-11 12:22:00,45.0,35.4,30.06,WSW,247,2.0,10.0,69,0.00,,,0.01,meteohub,2013-01-11 20:22:00,
2013-01-11 12:27:00,45.0,34.7,30.05,West,265,0.0,10.0,67,0.00,,,0.01,meteohub,2013-01-11 20:27:00,
2013-01-11 12:31:00,45.1,35.2,30.05,West,259,3.0,7.0,68,0.00,,,0.01,meteohub,2013-01-11 20:31:00,
2013-01-11 12:36:00,45.3,34.7,30.05,WSW,257,1.0,7.0,66,0.00,,,0.01,meteohub,2013-01-11 20:36:00,
2013-01-11 12:42:00,45.7,35.4,30.04,WSW,257,0.0,7.0,67,0.00,,,0.01,meteohub,2013-01-11 20:42:00,
2013-01-11 12:47:00,46.2,36.0,30.04,WSW,257,1.0,6.0,67,0.00,,,0.01,meteohub,2013-01-11 20:47:00,
2013-01-11 12:52:00,46.6,35.4,30.04,West,263,0.0,4.0,65,0.00,,,0.01,meteohub,2013-01-11 20:52:00,
2013-01-11 12:57:00,46.6,36.1,30.04,West,263,1.0,6.0,67,0.00,,,0.01,meteohub,2013-01-11 20:57:00,
2013-01-11 13:02:00,46.8,36.3,30.04,West,263,4.0,6.0,67,0.00,,,0.01,meteohub,2013-01-11 21:02:00,
2013-01-11 13:07:00,47.1,36.0,30.04,West,264,1.0,5.0,65,0.00,,,0.01,meteohub,2013-01-11 21:07:00,
2013-01-11 13:12:00,47.1,36.3,30.04,WSW,257,5.0,5.0,66,0.00,,,0.01,meteohub,2013-01-11 21:12:00,
2013-01-11 13:17:00,47.1,36.0,30.04,WSW,257,0.0,5.0,65,0.00,,,0.01,meteohub,2013-01-11 21:17:00,
2013-01-11 13:22:00,47.1,36.0,30.04,WNW,302,5.0,5.0,65,0.00,,,0.01,meteohub,2013-01-11 21:22:00,
2013-01-11 13:27:00,47.3,36.1,30.02,NNW,327,2.0,6.0,65,0.00,,,0.01,meteohub,2013-01-11 21:27:00,
2013-01-11 13:32:00,47.3,36.1,30.02,NNW,327,0.0,6.0,65,0.00,,,0.01,meteohub,2013-01-11 21:32:00,
2013-01-11 13:37:00,47.1,36.3,30.02,NNW,327,0.0,6.0,66,0.00,,,0.01,meteohub,2013-01-11 21:37:00,
2013-01-11 13:42:00,47.1,36.0,30.02,West,262,0.0,4.0,65,0.00,,,0.01,meteohub,2013-01-11 21:42:00,
2013-01-11 13:47:00,46.9,35.8,30.02,West,262,0.0,6.0,65,0.00,,,0.01,meteohub,2013-01-11 21:47:00,
2013-01-11 13:52:00,46.9,36.9,30.02,West,262,2.0,6.0,68,0.00,,,0.01,meteohub,2013-01-11 21:52:00,
2013-01-11 13:57:00,46.9,36.9,30.01,West,260,0.0,4.0,68,0.00,,,0.01,meteohub,2013-01-11 21:57:00,
2013-01-11 14:02:00,46.8,36.3,30.01,West,260,0.0,5.0,67,0.00,,,0.01,meteohub,2013-01-11 22:02:00,
2013-01-11 14:07:00,46.8,36.7,30.01,WSW,244,1.0,5.0,68,0.00,,,0.01,meteohub,2013-01-11 22:07:00,
2013-01-11 14:12:00,47.1,36.3,30.01,WSW,246,0.0,6.0,66,0.00,,,0.01,meteohub,2013-01-11 22:12:00,
2013-01-11 14:17:00,47.5,36.7,30.01,WSW,242,0.0,6.0,66,0.00,,,0.01,meteohub,2013-01-11 22:17:00,
2013-01-11 14:22:00,47.5,36.3,30.01,WSW,240,0.0,6.0,65,0.00,,,0.01,meteohub,2013-01-11 22:22:00,
2013-01-11 14:27:00,47.3,37.9,30.01,WSW,240,0.0,6.0,70,0.00,,,0.01,meteohub,2013-01-11 22:27:00,
2013-01-11 14:32:00,46.9,38.1,30.01,WSW,240,0.0,6.0,71,0.00,,,0.01,meteohub,2013-01-11 22:32:00,
2013-01-11 14:37:00,46.8,37.9,30.01,WSW,240,0.0,6.0,71,0.00,,,0.01,meteohub,2013-01-11 22:37:00,
2013-01-11 14:42:00,46.9,36.9,30.01,WSW,240,0.0,2.0,68,0.00,,,0.01,meteohub,2013-01-11 22:42:00,
2013-01-11 14:47:00,46.9,38.1,30.01,WSW,240,1.0,5.0,71,0.00,,,0.01,meteohub,2013-01-11 22:47:00,
2013-01-11 14:52:00,47.1,38.8,30.01,WSW,240,0.0,5.0,73,0.00,,,0.01,meteohub,2013-01-11 22:52:00,
2013-01-11 14:57:00,47.1,38.1,30.00,WNW,282,5.0,5.0,71,0.00,,,0.01,meteohub,2013-01-11 22:57:00,
2013-01-11 15:01:00,47.3,38.7,30.00,WNW,282,0.0,7.0,72,0.00,,,0.01,meteohub,2013-01-11 23:01:00,
2013-01-11 15:07:00,47.1,38.8,30.00,WNW,282,0.0,7.0,73,0.00,,,0.01,meteohub,2013-01-11 23:07:00,
2013-01-11 15:12:00,46.9,39.4,30.00,WNW,282,0.0,7.0,75,0.00,,,0.01,meteohub,2013-01-11 23:12:00,
2013-01-11 15:17:00,46.9,39.7,30.00,WNW,282,0.0,4.0,76,0.00,,,0.01,meteohub,2013-01-11 23:17:00,
2013-01-11 15:22:00,46.9,39.7,30.00,WNW,282,0.0,4.0,76,0.00,,,0.01,meteohub,2013-01-11 23:22:00,
2013-01-11 15:27:00,46.9,40.5,30.00,WNW,282,0.0,4.0,78,0.00,,,0.01,meteohub,2013-01-11 23:27:00,
2013-01-11 15:32:00,47.1,41.0,30.00,WNW,282,0.0,5.0,79,0.00,,,0.01,meteohub,2013-01-11 23:32:00,
2013-01-11 15:37:00,47.3,41.2,30.00,WNW,282,2.0,5.0,79,0.00,,,0.01,meteohub,2013-01-11 23:37:00,
2013-01-11 15:42:00,47.5,41.5,30.00,WNW,282,0.0,3.0,80,0.00,,,0.01,meteohub,2013-01-11 23:42:00,
2013-01-11 15:47:00,47.5,41.5,30.00,WNW,282,0.0,3.0,80,0.00,,,0.01,meteohub,2013-01-11 23:47:00,
2013-01-11 15:52:00,47.5,41.5,30.00,WNW,282,1.0,5.0,80,0.00,,,0.01,meteohub,2013-01-11 23:52:00,
2013-01-11 15:57:00,47.5,41.5,30.00,WNW,282,0.0,5.0,80,0.00,,,0.01,meteohub,2013-01-11 23:57:00,
2013-01-11 16:02:00,47.1,41.5,30.00,WNW,282,0.0,3.0,81,0.00,,,0.01,meteohub,2013-01-12 00:02:00,
2013-01-11 16:07:00,46.9,41.7,30.00,WNW,282,0.0,3.0,82,0.00,,,0.00,meteohub,2013-01-12 00:07:00,
2013-01-11 16:12:00,46.6,41.4,30.00,WNW,282,0.0,1.0,82,0.00,,,0.00,meteohub,2013-01-12 00:12:00,
2013-01-11 16:17:00,46.2,41.4,30.00,WNW,282,0.0,1.0,83,0.00,,,0.00,meteohub,2013-01-12 00:17:00,
2013-01-11 16:22:00,46.0,41.5,30.00,WNW,282,0.0,1.0,84,0.00,,,0.00,meteohub,2013-01-12 00:22:00,
2013-01-11 16:27:00,45.9,41.5,29.99,WNW,282,0.0,0.0,85,0.00,,,0.00,meteohub,2013-01-12 00:27:00,
2013-01-11 16:32:00,45.5,41.5,29.99,WNW,282,0.0,0.0,86,0.00,,,0.00,meteohub,2013-01-12 00:32:00,
2013-01-11 16:37:00,45.1,41.2,29.99,WNW,282,0.0,0.0,86,0.00,,,0.00,meteohub,2013-01-12 00:37:00,
2013-01-11 16:42:00,45.0,41.0,29.99,WNW,282,0.0,0.0,86,0.00,,,0.00,meteohub,2013-01-12 00:42:00,
2013-01-11 16:47:00,44.8,41.2,29.99,WNW,282,0.0,0.0,87,0.00,,,0.00,meteohub,2013-01-12 00:47:00,
2013-01-11 16:52:00,44.8,41.2,29.99,WNW,282,0.0,3.0,87,0.00,,,0.00,meteohub,2013-01-12 00:52:00,
2013-01-11 16:57:00,44.6,41.0,29.99,WNW,282,0.0,3.0,87,0.00,,,0.00,meteohub,2013-01-12 00:57:00,
2013-01-11 17:02:00,44.4,41.2,29.99,WNW,282,0.0,3.0,88,0.00,,,0.00,meteohub,2013-01-12 01:02:00,
2013-01-11 17:07:00,44.2,41.0,29.99,WNW,282,0.0,0.0,88,0.00,,,0.00,meteohub,2013-01-12 01:07:00,
2013-01-11 17:12:00,44.1,40.8,29.99,WNW,282,0.0,1.0,88,0.00,,,0.00,meteohub,2013-01-12 01:12:00,
2013-01-11 17:17:00,43.9,41.7,29.99,WNW,282,0.0,1.0,92,0.00,,,0.00,meteohub,2013-01-12 01:17:00,
2013-01-11 17:22:00,43.5,40.3,29.99,WNW,282,0.0,1.0,88,0.00,,,0.00,meteohub,2013-01-12 01:22:00,
2013-01-11 17:27:00,43.3,40.3,29.99,WNW,282,0.0,0.0,89,0.00,,,0.00,meteohub,2013-01-12 01:27:00,
2013-01-11 17:32:00,43.2,40.1,29.99,WNW,282,0.0,0.0,89,0.00,,,0.00,meteohub,2013-01-12 01:32:00,
2013-01-11 17:37:00,42.8,39.7,29.99,WNW,282,0.0,0.0,89,0.00,,,0.00,meteohub,2013-01-12 01:37:00,
2013-01-11 17:42:00,42.4,39.4,30.00,WNW,282,0.0,0.0,89,0.00,,,0.00,meteohub,2013-01-12 01:42:00,
2013-01-11 17:47:00,42.1,39.4,30.00,WNW,282,0.0,0.0,90,0.00,,,0.00,meteohub,2013-01-12 01:47:00,
2013-01-11 17:52:00,42.1,39.4,30.00,WNW,282,0.0,1.0,90,0.00,,,0.00,meteohub,2013-01-12 01:52:00,
2013-01-11 17:57:00,41.7,39.0,30.00,WNW,282,0.0,1.0,90,0.00,,,0.00,meteohub,2013-01-12 01:57:00,
2013-01-11 18:02:00,41.5,39.2,30.00,WNW,282,0.0,1.0,91,0.00,,,0.00,meteohub,2013-01-12 02:02:00,
2013-01-11 18:07:00,41.2,38.8,30.00,WNW,282,0.0,0.0,91,0.00,,,0.00,meteohub,2013-01-12 02:07:00,
2013-01-11 18:12:00,40.8,38.1,30.00,WNW,282,0.0,0.0,90,0.00,,,0.00,meteohub,2013-01-12 02:12:00,
2013-01-11 18:17:00,40.6,37.9,30.00,WNW,282,0.0,0.0,90,0.00,,,0.00,meteohub,2013-01-12 02:17:00,
2013-01-11 18:22:00,40.5,38.1,30.00,WNW,282,0.0,0.0,91,0.00,,,0.00,meteohub,2013-01-12 02:22:00,
2013-01-11 18:27:00,40.3,37.9,30.01,WNW,282,0.0,0.0,91,0.00,,,0.00,meteohub,2013-01-12 02:27:00,
2013-01-11 18:32:00,39.9,37.6,30.01,WNW,282,0.0,0.0,91,0.00,,,0.00,meteohub,2013-01-12 02:32:00,
2013-01-11 18:37:00,39.9,37.6,30.01,WNW,282,0.0,0.0,91,0.00,,,0.00,meteohub,2013-01-12 02:37:00,
2013-01-11 18:42:00,39.7,37.4,30.01,WNW,282,0.0,0.0,91,0.00,,,0.00,meteohub,2013-01-12 02:42:00,
2013-01-11 18:47:00,39.6,37.2,30.01,WNW,282,0.0,0.0,91,0.00,,,0.00,meteohub,2013-01-12 02:47:00,
2013-01-11 18:52:00,39.4,37.0,30.01,WNW,282,0.0,0.0,91,0.00,,,0.00,meteohub,2013-01-12 02:52:00,
2013-01-11 18:57:00,39.0,36.7,30.01,WNW,282,0.0,1.0,91,0.00,,,0.00,meteohub,2013-01-12 02:57:00,
2013-01-11 19:02:00,39.0,36.7,30.01,WNW,282,0.0,1.0,91,0.00,,,0.00,meteohub,2013-01-12 03:02:00,
2013-01-11 19:07:00,39.2,36.9,30.01,WNW,282,0.0,1.0,91,0.00,,,0.00,meteohub,2013-01-12 03:07:00,
2013-01-11 19:12:00,39.4,37.2,30.01,WNW,282,0.0,1.0,92,0.00,,,0.00,meteohub,2013-01-12 03:12:00,
2013-01-11 19:17:00,39.4,37.0,30.01,WNW,282,0.0,1.0,91,0.00,,,0.00,meteohub,2013-01-12 03:17:00,
2013-01-11 19:22:00,39.4,36.7,30.01,WNW,282,0.0,0.0,90,0.00,,,0.00,meteohub,2013-01-12 03:22:00,
2013-01-11 19:27:00,39.2,36.5,30.01,WNW,282,0.0,0.0,90,0.00,,,0.00,meteohub,2013-01-12 03:27:00,
2013-01-11 19:32:00,39.0,36.3,30.01,WNW,282,0.0,0.0,90,0.00,,,0.00,meteohub,2013-01-12 03:32:00,
2013-01-11 19:37:00,38.8,36.5,30.01,WNW,282,0.0,0.0,91,0.00,,,0.00,meteohub,2013-01-12 03:37:00,
2013-01-11 19:42:00,39.0,36.7,30.01,WNW,282,0.0,2.0,91,0.00,,,0.00,meteohub,2013-01-12 03:42:00,
2013-01-11 19:47:00,39.2,36.9,30.01,WNW,282,0.0,2.0,91,0.00,,,0.00,meteohub,2013-01-12 03:47:00,
2013-01-11 19:52:00,39.2,36.9,30.01,WNW,282,0.0,2.0,91,0.00,,,0.00,meteohub,2013-01-12 03:52:00,
2013-01-11 19:57:00,39.0,36.7,30.02,WNW,282,0.0,0.0,91,0.00,,,0.00,meteohub,2013-01-12 03:57:00,
2013-01-11 20:02:00,38.8,36.5,30.02,WNW,282,0.0,0.0,91,0.00,,,0.00,meteohub,2013-01-12 04:02:00,
2013-01-11 20:07:00,38.7,36.3,30.02,WNW,282,0.0,0.0,91,0.00,,,0.00,meteohub,2013-01-12 04:07:00,
2013-01-11 20:12:00,38.7,36.3,30.02,WNW,282,0.0,2.0,91,0.00,,,0.00,meteohub,2013-01-12 04:12:00,
2013-01-11 20:17:00,38.5,36.1,30.02,WNW,282,0.0,2.0,91,0.00,,,0.00,meteohub,2013-01-12 04:17:00,
2013-01-11 20:22:00,38.5,36.1,30.02,WNW,282,0.0,0.0,91,0.00,,,0.00,meteohub,2013-01-12 04:22:00,
2013-01-11 20:27:00,38.1,35.8,30.03,WNW,282,0.0,0.0,91,0.00,,,0.00,meteohub,2013-01-12 04:27:00,
2013-01-11 20:32:00,37.9,35.8,30.03,WNW,282,0.0,0.0,92,0.00,,,0.00,meteohub,2013-01-12 04:32:00,
2013-01-11 20:37:00,37.9,35.8,30.03,WNW,282,0.0,0.0,92,0.00,,,0.00,meteohub,2013-01-12 04:37:00,
2013-01-11 20:42:00,37.8,35.6,30.03,WNW,282,0.0,1.0,92,0.00,,,0.00,meteohub,2013-01-12 04:42:00,
2013-01-11 20:47:00,37.6,35.4,30.03,WNW,282,0.0,1.0,92,0.00,,,0.00,meteohub,2013-01-12 04:47:00,
2013-01-11 20:52:00,37.4,35.2,30.03,WNW,282,0.0,1.0,92,0.00,,,0.00,meteohub,2013-01-12 04:52:00,
2013-01-11 20:57:00,37.0,34.9,30.03,WNW,282,0.0,0.0,92,0.00,,,0.00,meteohub,2013-01-12 04:57:00,
2013-01-11 21:00:00,37.0,35.2,30.03,WNW,282,0.0,0.0,93,0.00,,,0.00,meteohub,2013-01-12 05:00:00,
2013-01-11 21:01:00,37.0,35.2,30.03,WNW,282,0.0,0.0,93,0.00,,,0.00,meteohub,2013-01-12 05:01:00,
2013-01-11 21:06:00,37.0,35.2,30.03,WNW,282,0.0,0.0,93,0.00,,,0.00,meteohub,2013-01-12 05:06:00,
2013-01-11 21:11:00,36.9,34.7,30.04,WNW,282,0.0,0.0,92,0.00,,,0.00,meteohub,2013-01-12 05:11:00,
2013-01-11 21:16:00,36.7,34.5,30.04,WNW,282,0.0,0.0,92,0.00,,,0.00,meteohub,2013-01-12 05:16:00,
2013-01-11 21:21:00,36.3,34.2,30.04,WNW,282,0.0,0.0,92,0.00,,,0.00,meteohub,2013-01-12 05:21:00,
2013-01-11 21:26:00,36.1,34.0,30.05,WNW,282,0.0,0.0,92,0.00,,,0.00,meteohub,2013-01-12 05:26:00,
2013-01-11 21:31:00,36.0,34.2,30.05,WNW,282,0.0,0.0,93,0.00,,,0.00,meteohub,2013-01-12 05:31:00,
2013-01-11 21:36:00,36.0,34.3,30.05,WNW,282,0.0,0.0,94,0.00,,,0.00,meteohub,2013-01-12 05:36:00,
2013-01-11 21:41:00,36.0,34.3,30.04,WNW,282,0.0,1.0,94,0.00,,,0.00,meteohub,2013-01-12 05:41:00,
2013-01-11 21:46:00,36.0,34.3,30.04,WNW,282,0.0,1.0,94,0.00,,,0.00,meteohub,2013-01-12 05:46:00,
2013-01-11 21:51:00,36.0,34.3,30.04,WNW,282,0.0,2.0,94,0.00,,,0.00,meteohub,2013-01-12 05:51:00,
2013-01-11 21:56:00,35.8,34.0,30.05,WNW,282,0.0,2.0,93,0.00,,,0.00,meteohub,2013-01-12 05:56:00,
2013-01-11 22:01:00,35.6,34.0,30.05,WNW,282,0.0,2.0,94,0.00,,,0.00,meteohub,2013-01-12 06:01:00,
2013-01-11 22:06:00,35.2,33.4,30.05,WNW,282,0.0,0.0,93,0.00,,,0.00,meteohub,2013-01-12 06:06:00,
2013-01-11 22:11:00,35.1,33.3,30.05,WNW,282,0.0,0.0,93,0.00,,,0.00,meteohub,2013-01-12 06:11:00,
2013-01-11 22:16:00,35.1,33.4,30.05,WNW,282,0.0,0.0,94,0.00,,,0.00,meteohub,2013-01-12 06:16:00,
2013-01-11 22:21:00,34.9,33.3,30.05,WNW,282,0.0,2.0,94,0.00,,,0.00,meteohub,2013-01-12 06:21:00,
2013-01-11 22:26:00,34.5,32.9,30.05,WNW,282,0.0,2.0,94,0.00,,,0.00,meteohub,2013-01-12 06:26:00,
2013-01-11 22:32:00,34.9,33.6,30.05,WNW,282,0.0,2.0,95,0.00,,,0.00,meteohub,2013-01-12 06:32:00,
2013-01-11 22:37:00,34.7,33.1,30.05,WNW,282,0.0,1.0,94,0.00,,,0.00,meteohub,2013-01-12 06:37:00,
2013-01-11 22:42:00,34.7,33.4,30.05,WNW,282,0.0,1.0,95,0.00,,,0.00,meteohub,2013-01-12 06:42:00,
2013-01-11 22:47:00,34.7,33.4,30.05,WNW,282,0.0,1.0,95,0.00,,,0.00,meteohub,2013-01-12 06:47:00,
2013-01-11 22:52:00,34.5,32.9,30.05,WNW,282,0.0,0.0,94,0.00,,,0.00,meteohub,2013-01-12 06:52:00,
2013-01-11 22:57:00,34.5,33.3,30.06,WNW,282,0.0,0.0,95,0.00,,,0.00,meteohub,2013-01-12 06:57:00,
2013-01-11 23:02:00,35.8,35.1,30.06,WNW,282,0.0,3.0,97,0.00,,,0.00,meteohub,2013-01-12 07:02:00,
2013-01-11 23:07:00,37.0,36.0,30.06,WNW,282,0.0,3.0,96,0.00,,,0.00,meteohub,2013-01-12 07:07:00,
2013-01-11 23:12:00,38.7,34.0,30.06,WNW,282,0.0,3.0,83,0.00,,,0.00,meteohub,2013-01-12 07:12:00,
2013-01-11 23:17:00,40.6,34.7,30.06,WNW,282,0.0,4.0,79,0.00,,,0.00,meteohub,2013-01-12 07:17:00,
2013-01-11 23:22:00,41.2,35.8,30.06,WNW,282,0.0,4.0,81,0.00,,,0.00,meteohub,2013-01-12 07:22:00,
2013-01-11 23:27:00,41.0,35.2,30.05,WNW,282,0.0,4.0,80,0.00,,,0.00,meteohub,2013-01-12 07:27:00,
2013-01-11 23:32:00,40.5,35.1,30.05,WNW,282,0.0,3.0,81,0.00,,,0.00,meteohub,2013-01-12 07:32:00,
2013-01-11 23:37:00,39.7,34.3,30.05,WNW,282,0.0,0.0,81,0.00,,,0.00,meteohub,2013-01-12 07:37:00,
2013-01-11 23:42:00,39.0,34.5,30.06,WNW,282,0.0,0.0,84,0.00,,,0.00,meteohub,2013-01-12 07:42:00,
2013-01-11 23:47:00,38.5,34.2,30.06,WNW,282,0.0,1.0,84,0.00,,,0.00,meteohub,2013-01-12 07:47:00,
2013-01-11 23:52:00,37.9,33.8,30.06,WNW,282,0.0,1.0,85,0.00,,,0.00,meteohub,2013-01-12 07:52:00,
2013-01-11 23:57:00,37.6,34.0,30.06,WNW,282,0.0,1.0,87,0.00,,,0.00,meteohub,2013-01-12 07:57:00,